| time (UTC) | temp C | wind direction | speed KPH | gust KPH | rain 1hr cm | rain 24hr cm | rain mn cm | humidity % | barometer mb |
| 20260507075522 | 3 | 1 | 0.0 | 1.6 | 0.00 | 0.00 | 0.00 | 62 | 1025.3 |
| 20260507075018 | 3 | 1 | 0.0 | 1.6 | 0.00 | 0.00 | 0.00 | 61 | 1025.0 |
| 20260507074515 | 3 | 357 | 1.6 | 1.6 | 0.00 | 0.00 | 0.00 | 61 | 1025.4 |
| 20260507074014 | 3 | 1 | 0.0 | 1.6 | 0.00 | 0.00 | 0.00 | 61 | 1025.3 |
| 20260507073509 | 3 | 1 | 0.0 | 1.6 | 0.00 | 0.00 | 0.00 | 62 | 1025.2 |
| 20260507073006 | 3 | 1 | 0.0 | 0.0 | 0.00 | 0.00 | 0.00 | 62 | 1025.1 |
| 20260507072504 | 3 | 1 | 0.0 | 1.6 | 0.00 | 0.00 | 0.00 | 61 | 1025.0 |
| 20260507072001 | 3 | 2 | 0.0 | 1.6 | 0.00 | 0.00 | 0.00 | 60 | 1025.0 |
| 20260507071458 | 3 | 5 | 0.0 | 1.6 | 0.00 | 0.00 | 0.00 | 59 | 1025.2 |
| 20260507070954 | 3 | 15 | 0.0 | 1.6 | 0.00 | 0.00 | 0.00 | 59 | 1025.1 |
| 20260507070451 | 4 | 13 | 0.0 | 1.6 | 0.00 | 0.00 | 0.00 | 59 | 1025.0 |
| 20260507065948 | 4 | 14 | 0.0 | 0.0 | 0.00 | 0.00 | 0.00 | 60 | 1025.1 |
| 20260507065445 | 4 | 13 | 0.0 | 0.0 | 0.00 | 0.00 | 0.00 | 59 | 1025.2 |
| 20260507064942 | 5 | 14 | 0.0 | 0.0 | 0.00 | 0.00 | 0.00 | 59 | 1025.0 |
| 20260507064440 | 5 | 14 | 0.0 | 0.0 | 0.00 | 0.00 | 0.00 | 58 | 1024.8 |
| 20260507063938 | 5 | 14 | 0.0 | 1.6 | 0.00 | 0.00 | 0.00 | 58 | 1025.0 |
| 20260507063434 | 5 | 15 | 0.0 | 0.0 | 0.00 | 0.00 | 0.00 | 58 | 1025.0 |
| 20260507062932 | 5 | 15 | 0.0 | 0.0 | 0.00 | 0.00 | 0.00 | 57 | 1024.8 |
| 20260507062429 | 5 | 13 | 0.0 | 0.0 | 0.00 | 0.00 | 0.00 | 57 | 1024.8 |
| 20260507061926 | 5 | 15 | 0.0 | 0.0 | 0.00 | 0.00 | 0.00 | 56 | 1024.7 |
| 20260507061424 | 5 | 14 | 0.0 | 0.0 | 0.00 | 0.00 | 0.00 | 56 | 1024.5 |
| 20260507060922 | 6 | 14 | 0.0 | 1.6 | 0.00 | 0.00 | 0.00 | 55 | 1024.6 |
| 20260507060419 | 6 | 14 | 0.0 | 0.0 | 0.00 | 0.00 | 0.00 | 55 | 1024.7 |
| 20260507055915 | 6 | 7 | 0.0 | 0.0 | 0.00 | 0.00 | 0.00 | 55 | 1024.6 |
| 20260507055411 | 6 | 7 | 0.0 | 0.0 | 0.00 | 0.00 | 0.00 | 54 | 1024.5 |
| 20260507054908 | 6 | 7 | 0.0 | 0.0 | 0.00 | 0.00 | 0.00 | 54 | 1024.2 |
| 20260507054404 | 6 | 7 | 0.0 | 0.0 | 0.00 | 0.00 | 0.00 | 53 | 1024.2 |
| 20260507053901 | 6 | 6 | 0.0 | 0.0 | 0.00 | 0.00 | 0.00 | 52 | 1024.1 |
| 20260507053359 | 6 | 6 | 0.0 | 0.0 | 0.00 | 0.00 | 0.00 | 52 | 1024.5 |
| 20260507052858 | 7 | 5 | 0.0 | 1.6 | 0.00 | 0.00 | 0.00 | 50 | 1024.3 |
| 20260507052354 | 7 | 15 | 0.0 | 0.0 | 0.00 | 0.00 | 0.00 | 50 | 1024.1 |
| 20260507051851 | 7 | 15 | 0.0 | 0.0 | 0.00 | 0.00 | 0.00 | 49 | 1024.1 |
| 20260507051349 | 7 | 15 | 0.0 | 0.0 | 0.00 | 0.00 | 0.00 | 49 | 1024.1 |
| 20260507050845 | 7 | 4 | 0.0 | 1.6 | 0.00 | 0.00 | 0.00 | 47 | 1024.0 |
| 20260507050342 | 7 | 21 | 0.0 | 0.0 | 0.00 | 0.00 | 0.00 | 47 | 1024.0 |
| 20260507045839 | 7 | 21 | 0.0 | 0.0 | 0.00 | 0.00 | 0.00 | 49 | 1023.8 |
| 20260507045335 | 7 | 21 | 0.0 | 0.0 | 0.00 | 0.00 | 0.00 | 48 | 1024.0 |
| 20260507044833 | 7 | 21 | 0.0 | 1.6 | 0.00 | 0.00 | 0.00 | 50 | 1023.7 |
| 20260507044329 | 7 | 12 | 0.0 | 0.0 | 0.00 | 0.00 | 0.00 | 50 | 1024.0 |
| 20260507043825 | 7 | 5 | 0.0 | 1.6 | 0.00 | 0.00 | 0.00 | 51 | 1023.7 |
| 20260507043322 | 7 | 5 | 0.0 | 0.0 | 0.00 | 0.00 | 0.00 | 51 | 1023.6 |
| 20260507042818 | 8 | 5 | 0.0 | 1.6 | 0.00 | 0.00 | 0.00 | 50 | 1023.6 |
| 20260507042314 | 8 | 5 | 0.0 | 1.6 | 0.00 | 0.00 | 0.00 | 46 | 1023.7 |
| 20260507041811 | 8 | 5 | 0.0 | 1.6 | 0.00 | 0.00 | 0.00 | 46 | 1023.5 |
| 20260507041308 | 8 | 5 | 0.0 | 1.6 | 0.00 | 0.00 | 0.00 | 45 | 1023.4 |
| 20260507040805 | 8 | 5 | 0.0 | 1.6 | 0.00 | 0.00 | 0.00 | 45 | 1023.7 |
| 20260507040301 | 9 | 5 | 0.0 | 0.0 | 0.00 | 0.00 | 0.00 | 45 | 1023.4 |
| 20260507035757 | 9 | 10 | 0.0 | 1.6 | 0.00 | 0.00 | 0.00 | 44 | 1023.4 |
| 20260507035252 | 9 | 8 | 1.6 | 1.6 | 0.00 | 0.00 | 0.00 | 44 | 1023.4 |
| 20260507034750 | 10 | 10 | 0.0 | 0.0 | 0.00 | 0.00 | 0.00 | 44 | 1023.2 |
| 20260507034247 | 10 | 11 | 0.0 | 0.0 | 0.00 | 0.00 | 0.00 | 43 | 1023.1 |
| 20260507033745 | 10 | 11 | 0.0 | 0.0 | 0.00 | 0.00 | 0.00 | 43 | 1023.2 |
| 20260507033242 | 10 | 17 | 0.0 | 0.0 | 0.00 | 0.00 | 0.00 | 42 | 1023.2 |
| 20260507032739 | 10 | 19 | 0.0 | 1.6 | 0.00 | 0.00 | 0.00 | 41 | 1023.1 |
| 20260507032235 | 10 | 19 | 0.0 | 1.6 | 0.00 | 0.00 | 0.00 | 41 | 1022.9 |
| 20260507031732 | 11 | 21 | 0.0 | 1.6 | 0.00 | 0.00 | 0.00 | 40 | 1023.2 |
| 20260507031229 | 11 | 22 | 0.0 | 1.6 | 0.00 | 0.00 | 0.00 | 40 | 1023.0 |
| 20260507030726 | 11 | 23 | 0.0 | 0.0 | 0.00 | 0.00 | 0.00 | 40 | 1022.9 |
| 20260507030223 | 11 | 11 | 1.6 | 1.6 | 0.00 | 0.00 | 0.00 | 40 | 1022.7 |
| 20260507025720 | 11 | 28 | 0.0 | 1.6 | 0.00 | 0.00 | 0.00 | 39 | 1022.4 |
| 20260507025217 | 11 | 29 | 0.0 | 0.0 | 0.00 | 0.00 | 0.00 | 38 | 1022.7 |
| 20260507024716 | 12 | 29 | 0.0 | 0.0 | 0.00 | 0.00 | 0.00 | 38 | 1022.5 |
| 20260507024212 | 12 | 29 | 0.0 | 1.6 | 0.00 | 0.00 | 0.00 | 38 | 1022.4 |
| 20260507023708 | 12 | 30 | 0.0 | 0.0 | 0.00 | 0.00 | 0.00 | 37 | 1022.2 |
| 20260507023205 | 12 | 30 | 0.0 | 0.0 | 0.00 | 0.00 | 0.00 | 36 | 1022.2 |
| 20260507022702 | 13 | 30 | 0.0 | 0.0 | 0.00 | 0.00 | 0.00 | 36 | 1022.1 |
| 20260507022158 | 13 | 30 | 0.0 | 0.0 | 0.00 | 0.00 | 0.00 | 34 | 1022.1 |
| 20260507021654 | 13 | 30 | 0.0 | 0.0 | 0.00 | 0.00 | 0.00 | 33 | 1022.0 |
| 20260507021149 | 13 | 30 | 0.0 | 0.0 | 0.00 | 0.00 | 0.00 | 32 | 1021.7 |
| 20260507020649 | 14 | 30 | 0.0 | 0.0 | 0.00 | 0.00 | 0.00 | 31 | 1021.9 |
| 20260507020144 | 15 | 30 | 0.0 | 0.0 | 0.00 | 0.00 | 0.00 | 31 | 1021.9 |
| 20260507015643 | 15 | 30 | 0.0 | 1.6 | 0.00 | 0.00 | 0.00 | 31 | 1021.9 |
| 20260507015140 | 15 | 31 | 0.0 | 1.6 | 0.00 | 0.00 | 0.00 | 30 | 1022.0 |
| 20260507014636 | 15 | 35 | 1.6 | 1.6 | 0.00 | 0.00 | 0.00 | 29 | 1021.6 |
| 20260507014132 | 15 | 24 | 0.0 | 1.6 | 0.00 | 0.00 | 0.00 | 29 | 1021.5 |
| 20260507013629 | 15 | 30 | 0.0 | 1.6 | 0.00 | 0.00 | 0.00 | 29 | 1021.6 |
| 20260507013126 | 15 | 34 | 0.0 | 1.6 | 0.00 | 0.00 | 0.00 | 31 | 1021.7 |
| 20260507012624 | 15 | 3 | 1.6 | 1.6 | 0.00 | 0.00 | 0.00 | 28 | 1021.7 |
| 20260507012119 | 15 | 39 | 1.6 | 3.2 | 0.00 | 0.00 | 0.00 | 28 | 1021.4 |
| 20260507011617 | 16 | 54 | 3.2 | 3.2 | 0.00 | 0.00 | 0.00 | 28 | 1021.4 |
| 20260507011113 | 16 | 17 | 4.8 | 4.8 | 0.00 | 0.00 | 0.00 | 27 | 1021.5 |
| 20260507010608 | 16 | 68 | 0.0 | 0.0 | 0.00 | 0.00 | 0.00 | 27 | 1021.4 |
| 20260507010104 | 16 | 68 | 0.0 | 0.0 | 0.00 | 0.00 | 0.00 | 26 | 1021.5 |
| 20260507005602 | 16 | 216 | 1.6 | 3.2 | 0.00 | 0.00 | 0.00 | 26 | 1021.1 |
| 20260507005058 | 16 | 205 | 1.6 | 4.8 | 0.00 | 0.00 | 0.00 | 26 | 1021.4 |
| 20260507004555 | 16 | 23 | 0.0 | 0.0 | 0.00 | 0.00 | 0.00 | 27 | 1021.3 |
| 20260507004052 | 16 | 23 | 0.0 | 3.2 | 0.00 | 0.00 | 0.00 | 27 | 1021.5 |
| 20260507003548 | 16 | 27 | 0.0 | 1.6 | 0.00 | 0.00 | 0.00 | 29 | 1021.4 |
| 20260507003043 | 16 | 27 | 0.0 | 4.8 | 0.00 | 0.00 | 0.00 | 28 | 1021.1 |
| 20260507002540 | 16 | 115 | 1.6 | 3.2 | 0.00 | 0.00 | 0.00 | 27 | 1021.1 |
| 20260507002036 | 15 | 223 | 0.0 | 0.0 | 0.00 | 0.00 | 0.00 | 27 | 1021.0 |
| 20260507001533 | 15 | 223 | 0.0 | 1.6 | 0.00 | 0.00 | 0.00 | 28 | 1021.1 |
| 20260507001031 | 15 | 223 | 0.0 | 0.0 | 0.00 | 0.00 | 0.00 | 26 | 1021.1 |
| 20260507000526 | 16 | 222 | 0.0 | 3.2 | 0.00 | 0.00 | 0.00 | 28 | 1021.1 |
| 20260507000023 | 16 | 60 | 0.0 | 1.6 | 0.00 | 0.00 | 0.00 | 26 | 1021.1 |
| 20260506235520 | 17 | 12 | 0.0 | 1.6 | 0.00 | 0.00 | 0.00 | 25 | 1021.0 |
| 20260506235015 | 17 | 40 | 0.0 | 3.2 | 0.00 | 0.00 | 0.00 | 26 | 1020.9 |
| 20260506234513 | 17 | 246 | 6.4 | 8.0 | 0.00 | 0.00 | 0.00 | 23 | 1020.8 |
| 20260506234010 | 17 | 281 | 1.6 | 11.3 | 0.00 | 0.00 | 0.00 | 24 | 1021.0 |
| 20260506233506 | 17 | 51 | 0.0 | 3.2 | 0.00 | 0.00 | 0.00 | 23 | 1020.8 |
| 20260506233003 | 17 | 54 | 1.6 | 1.6 | 0.00 | 0.00 | 0.00 | 25 | 1020.6 |
| 20260506232459 | 17 | 236 | 0.0 | 8.0 | 0.00 | 0.00 | 0.00 | 23 | 1020.5 |
| 20260506231955 | 17 | 245 | 1.6 | 3.2 | 0.00 | 0.00 | 0.00 | 24 | 1020.6 |
| 20260506231453 | 17 | 343 | 1.6 | 3.2 | 0.00 | 0.00 | 0.00 | 24 | 1020.8 |
| 20260506230950 | 18 | 242 | 6.4 | 8.0 | 0.00 | 0.00 | 0.00 | 22 | 1020.5 |
| 20260506230446 | 18 | 35 | 1.6 | 4.8 | 0.00 | 0.00 | 0.00 | 23 | 1020.8 |
| 20260506225943 | 17 | 27 | 1.6 | 8.0 | 0.00 | 0.00 | 0.00 | 23 | 1020.6 |
| 20260506225441 | 18 | 277 | 4.8 | 4.8 | 0.00 | 0.00 | 0.00 | 22 | 1020.5 |
| 20260506224937 | 17 | 344 | 1.6 | 4.8 | 0.00 | 0.00 | 0.00 | 23 | 1020.5 |
| 20260506224434 | 18 | 41 | 0.0 | 0.0 | 0.00 | 0.00 | 0.00 | 23 | 1020.8 |
| 20260506223931 | 18 | 218 | 6.4 | 8.0 | 0.00 | 0.00 | 0.00 | 21 | 1020.8 |
| 20260506223426 | 18 | 243 | 1.6 | 3.2 | 0.00 | 0.00 | 0.00 | 22 | 1020.8 |
| 20260506222924 | 19 | 288 | 1.6 | 9.7 | 0.00 | 0.00 | 0.00 | 22 | 1020.8 |
| 20260506222420 | 18 | 236 | 1.6 | 4.8 | 0.00 | 0.00 | 0.00 | 22 | 1020.8 |
| 20260506221917 | 18 | 140 | 4.8 | 8.0 | 0.00 | 0.00 | 0.00 | 23 | 1020.8 |
| 20260506221414 | 18 | 256 | 3.2 | 9.7 | 0.00 | 0.00 | 0.00 | 24 | 1020.9 |
| 20260506220912 | 17 | 60 | 3.2 | 8.0 | 0.00 | 0.00 | 0.00 | 24 | 1020.9 |
| 20260506220407 | 17 | 354 | 1.6 | 8.0 | 0.00 | 0.00 | 0.00 | 25 | 1021.0 |
| 20260506215904 | 17 | 285 | 4.8 | 9.7 | 0.00 | 0.00 | 0.00 | 25 | 1021.0 |
| 20260506215400 | 19 | 27 | 1.6 | 1.6 | 0.00 | 0.00 | 0.00 | 24 | 1021.1 |
| 20260506214856 | 19 | 41 | 1.6 | 4.8 | 0.00 | 0.00 | 0.00 | 26 | 1021.0 |
| 20260506214353 | 19 | 328 | 3.2 | 4.8 | 0.00 | 0.00 | 0.00 | 26 | 1021.1 |
| 20260506213851 | 18 | 301 | 3.2 | 3.2 | 0.00 | 0.00 | 0.00 | 24 | 1021.4 |
| 20260506213348 | 18 | 265 | 4.8 | 9.7 | 0.00 | 0.00 | 0.00 | 25 | 1021.1 |
| 20260506212845 | 17 | 50 | 0.0 | 3.2 | 0.00 | 0.00 | 0.00 | 29 | 1021.1 |
| 20260506212341 | 16 | 20 | 3.2 | 4.8 | 0.00 | 0.00 | 0.00 | 27 | 1021.3 |
| 20260506211836 | 16 | 45 | 1.6 | 4.8 | 0.00 | 0.00 | 0.00 | 29 | 1021.3 |
| 20260506211332 | 18 | 349 | 0.0 | 8.0 | 0.00 | 0.00 | 0.00 | 27 | 1021.0 |
| 20260506210830 | 18 | 37 | 1.6 | 9.7 | 0.00 | 0.00 | 0.00 | 26 | 1021.4 |
| 20260506210327 | 18 | 319 | 1.6 | 4.8 | 0.00 | 0.00 | 0.00 | 28 | 1021.1 |
| 20260506205824 | 17 | 28 | 3.2 | 4.8 | 0.00 | 0.00 | 0.00 | 28 | 1021.3 |
| 20260506205320 | 17 | 95 | 1.6 | 8.0 | 0.00 | 0.00 | 0.00 | 28 | 1021.3 |
| 20260506204817 | 18 | 318 | 0.0 | 3.2 | 0.00 | 0.00 | 0.00 | 27 | 1021.1 |
| 20260506204314 | 17 | 268 | 3.2 | 4.8 | 0.00 | 0.00 | 0.00 | 28 | 1021.4 |
| 20260506203812 | 16 | 193 | 1.6 | 4.8 | 0.00 | 0.00 | 0.00 | 29 | 1021.4 |
| 20260506203309 | 16 | 133 | 1.6 | 9.7 | 0.00 | 0.00 | 0.00 | 28 | 1021.3 |
| 20260506202806 | 18 | 119 | 1.6 | 4.8 | 0.00 | 0.00 | 0.00 | 26 | 1021.1 |
| 20260506202306 | 17 | 254 | 6.4 | 9.7 | 0.00 | 0.00 | 0.00 | 28 | 1021.5 |
| 20260506201759 | 17 | 255 | 3.2 | 9.7 | 0.00 | 0.00 | 0.00 | 26 | 1021.4 |
| 20260506201256 | 17 | 256 | 3.2 | 4.8 | 0.00 | 0.00 | 0.00 | 28 | 1021.4 |
| 20260506200753 | 17 | 237 | 8.0 | 11.3 | 0.00 | 0.00 | 0.00 | 25 | 1021.4 |
| 20260506200249 | 17 | 35 | 1.6 | 3.2 | 0.00 | 0.00 | 0.00 | 25 | 1021.1 |
| 20260506195746 | 17 | 279 | 0.0 | 3.2 | 0.00 | 0.00 | 0.00 | 28 | 1021.1 |
| 20260506195242 | 16 | 296 | 3.2 | 3.2 | 0.00 | 0.00 | 0.00 | 28 | 1021.3 |
| 20260506194740 | 17 | 234 | 1.6 | 11.3 | 0.00 | 0.00 | 0.00 | 28 | 1021.6 |
| 20260506194236 | 17 | 341 | 1.6 | 9.7 | 0.00 | 0.00 | 0.00 | 26 | 1021.5 |
| 20260506193734 | 17 | 306 | 3.2 | 3.2 | 0.00 | 0.00 | 0.00 | 27 | 1021.4 |
| 20260506193230 | 17 | 274 | 4.8 | 8.0 | 0.00 | 0.00 | 0.00 | 27 | 1021.4 |
| 20260506192727 | 16 | 292 | 1.6 | 4.8 | 0.00 | 0.00 | 0.00 | 29 | 1021.5 |
| 20260506192224 | 16 | 275 | 1.6 | 4.8 | 0.00 | 0.00 | 0.00 | 30 | 1021.4 |
| 20260506191720 | 15 | 206 | 0.0 | 3.2 | 0.00 | 0.00 | 0.00 | 32 | 1021.4 |
| 20260506191216 | 15 | 59 | 0.0 | 1.6 | 0.00 | 0.00 | 0.00 | 31 | 1021.5 |
| 20260506190714 | 15 | 209 | 0.0 | 3.2 | 0.00 | 0.00 | 0.00 | 33 | 1021.3 |
| 20260506190210 | 15 | 209 | 3.2 | 8.0 | 0.00 | 0.00 | 0.00 | 32 | 1021.4 |
| 20260506185708 | 15 | 207 | 3.2 | 8.0 | 0.00 | 0.00 | 0.00 | 30 | 1021.5 |
| 20260506185204 | 14 | 262 | 3.2 | 3.2 | 0.00 | 0.00 | 0.00 | 33 | 1021.4 |
| 20260506184702 | 15 | 230 | 4.8 | 12.9 | 0.00 | 0.00 | 0.00 | 30 | 1021.4 |
| 20260506184159 | 15 | 254 | 1.6 | 4.8 | 0.00 | 0.00 | 0.00 | 34 | 1021.5 |
| 20260506183655 | 14 | 38 | 0.0 | 3.2 | 0.00 | 0.00 | 0.00 | 35 | 1021.6 |
| 20260506183151 | 14 | 312 | 1.6 | 3.2 | 0.00 | 0.00 | 0.00 | 34 | 1021.5 |
| 20260506182649 | 14 | 254 | 4.8 | 4.8 | 0.00 | 0.00 | 0.00 | 33 | 1021.5 |
| 20260506182146 | 14 | 241 | 4.8 | 8.0 | 0.00 | 0.00 | 0.00 | 34 | 1021.7 |
| 20260506181644 | 14 | 347 | 1.6 | 1.6 | 0.00 | 0.00 | 0.00 | 38 | 1021.5 |
| 20260506181140 | 13 | 250 | 3.2 | 12.9 | 0.00 | 0.00 | 0.00 | 35 | 1021.5 |
| 20260506180637 | 13 | 255 | 4.8 | 4.8 | 0.00 | 0.00 | 0.00 | 37 | 1021.4 |
| 20260506180134 | 13 | 0 | 1.6 | 3.2 | 0.00 | 0.00 | 0.00 | 39 | 1021.7 |
| 20260506175630 | 12 | 294 | 1.6 | 4.8 | 0.00 | 0.00 | 0.00 | 40 | 1021.5 |
| 20260506175126 | 13 | 347 | 1.6 | 3.2 | 0.00 | 0.00 | 0.00 | 41 | 1021.6 |
| 20260506174625 | 13 | 231 | 4.8 | 8.0 | 0.00 | 0.00 | 0.00 | 38 | 1021.7 |
| 20260506174121 | 12 | 243 | 0.0 | 8.0 | 0.00 | 0.00 | 0.00 | 39 | 1021.5 |
| 20260506173619 | 12 | 220 | 4.8 | 8.0 | 0.00 | 0.00 | 0.00 | 38 | 1021.5 |
| 20260506173116 | 12 | 66 | 0.0 | 4.8 | 0.00 | 0.00 | 0.00 | 40 | 1021.5 |
| 20260506172613 | 12 | 46 | 0.0 | 1.6 | 0.00 | 0.00 | 0.00 | 40 | 1021.5 |
| 20260506172109 | 12 | 220 | 6.4 | 8.0 | 0.00 | 0.00 | 0.00 | 38 | 1021.4 |
| 20260506171607 | 12 | 358 | 1.6 | 4.8 | 0.00 | 0.00 | 0.00 | 44 | 1021.4 |
| 20260506171104 | 12 | 168 | 0.0 | 4.8 | 0.00 | 0.00 | 0.00 | 42 | 1021.5 |
| 20260506170601 | 12 | 258 | 3.2 | 8.0 | 0.00 | 0.00 | 0.00 | 40 | 1021.5 |
| 20260506170059 | 11 | 266 | 3.2 | 4.8 | 0.00 | 0.00 | 0.00 | 42 | 1021.5 |
| 20260506165557 | 11 | 316 | 3.2 | 9.7 | 0.00 | 0.00 | 0.00 | 41 | 1021.5 |
| 20260506165053 | 11 | 26 | 0.0 | 3.2 | 0.00 | 0.00 | 0.00 | 44 | 1021.3 |
| 20260506164551 | 11 | 47 | 1.6 | 4.8 | 0.00 | 0.00 | 0.00 | 45 | 1021.4 |
| 20260506164048 | 11 | 237 | 1.6 | 8.0 | 0.00 | 0.00 | 0.00 | 42 | 1021.3 |
| 20260506163543 | 11 | 19 | 0.0 | 1.6 | 0.00 | 0.00 | 0.00 | 48 | 1021.0 |
| 20260506163039 | 10 | 240 | 0.0 | 4.8 | 0.00 | 0.00 | 0.00 | 46 | 1021.1 |
| 20260506162536 | 10 | 286 | 1.6 | 4.8 | 0.00 | 0.00 | 0.00 | 45 | 1021.1 |
| 20260506162033 | 10 | 282 | 0.0 | 4.8 | 0.00 | 0.00 | 0.00 | 52 | 1021.0 |
| 20260506161531 | 10 | 310 | 0.0 | 3.2 | 0.00 | 0.00 | 0.00 | 53 | 1021.4 |
| 20260506161027 | 9 | 313 | 0.0 | 1.6 | 0.00 | 0.00 | 0.00 | 53 | 1021.1 |
| 20260506160525 | 9 | 214 | 3.2 | 4.8 | 0.00 | 0.00 | 0.00 | 53 | 1021.0 |
| 20260506160022 | 8 | 261 | 0.0 | 1.6 | 0.00 | 0.00 | 0.00 | 54 | 1021.1 |
| 20260506155520 | 8 | 353 | 0.0 | 3.2 | 0.00 | 0.00 | 0.00 | 53 | 1021.3 |
| 20260506153652 | 7 | 295 | 0.0 | 4.8 | 0.00 | 0.00 | 0.00 | 55 | 1021.4 |
| 20260506153149 | 7 | 242 | 1.6 | 8.0 | 0.00 | 0.00 | 0.00 | 56 | 1021.3 |
| 20260506152646 | 7 | 261 | 1.6 | 3.2 | 0.00 | 0.00 | 0.00 | 57 | 1021.0 |
| 20260506152143 | 6 | 330 | 1.6 | 3.2 | 0.00 | 0.00 | 0.00 | 59 | 1021.0 |
| 20260506151642 | 6 | 292 | 3.2 | 3.2 | 0.00 | 0.00 | 0.00 | 60 | 1020.9 |
| 20260506151138 | 6 | 249 | 0.0 | 3.2 | 0.00 | 0.00 | 0.00 | 61 | 1021.1 |
| 20260506150635 | 6 | 246 | 3.2 | 4.8 | 0.00 | 0.00 | 0.00 | 61 | 1021.1 |
| 20260506150132 | 6 | 15 | 0.0 | 3.2 | 0.00 | 0.00 | 0.00 | 62 | 1020.8 |
| 20260506145629 | 6 | 3 | 1.6 | 1.6 | 0.00 | 0.00 | 0.00 | 65 | 1020.9 |
| 20260506145126 | 5 | 241 | 1.6 | 4.8 | 0.00 | 0.00 | 0.00 | 64 | 1020.9 |
| 20260506144624 | 5 | 204 | 0.0 | 1.6 | 0.00 | 0.00 | 0.00 | 66 | 1020.9 |
| 20260506144120 | 5 | 108 | 1.6 | 4.8 | 0.00 | 0.00 | 0.00 | 68 | 1021.1 |
| 20260506143618 | 4 | 55 | 0.0 | 1.6 | 0.00 | 0.00 | 0.00 | 70 | 1020.9 |
| 20260506143116 | 4 | 33 | 0.0 | 1.6 | 0.00 | 0.00 | 0.00 | 73 | 1021.0 |
| 20260506142614 | 3 | 8 | 1.6 | 3.2 | 0.00 | 0.00 | 0.00 | 74 | 1021.3 |
| 20260506142112 | 3 | 24 | 0.0 | 1.6 | 0.00 | 0.00 | 0.00 | 77 | 1020.9 |
| 20260506141609 | 2 | 17 | 0.0 | 3.2 | 0.00 | 0.00 | 0.00 | 78 | 1021.5 |
| 20260506141107 | 2 | 35 | 0.0 | 0.0 | 0.00 | 0.00 | 0.00 | 84 | 1021.1 |
| 20260506140604 | 1 | 356 | 0.0 | 1.6 | 0.00 | 0.00 | 0.00 | 86 | 1021.1 |
| 20260506135558 | 1 | 41 | 0.0 | 1.6 | 0.00 | 0.00 | 0.00 | 91 | 1021.0 |
| 20260506135054 | 0 | 15 | 0.0 | 1.6 | 0.00 | 0.00 | 0.00 | 91 | 1021.0 |
| 20260506134551 | 0 | 2 | 1.6 | 1.6 | 0.00 | 0.00 | 0.00 | 92 | 1020.9 |
| 20260506134047 | 0 | 19 | 0.0 | 1.6 | 0.00 | 0.00 | 0.00 | 92 | 1020.8 |
| 20260506133544 | 0 | 24 | 0.0 | 0.0 | 0.00 | 0.00 | 0.00 | 92 | 1020.9 |
| 20260506133041 | 0 | 19 | 0.0 | 0.0 | 0.00 | 0.00 | 0.00 | 92 | 1020.8 |
| 20260506132538 | 0 | 24 | 0.0 | 0.0 | 0.00 | 0.00 | 0.00 | 93 | 1020.8 |
| 20260506132035 | 0 | 39 | 0.0 | 0.0 | 0.00 | 0.00 | 0.00 | 93 | 1020.8 |
| 20260506131532 | 0 | 83 | 0.0 | 0.0 | 0.00 | 0.00 | 0.00 | 94 | 1020.8 |
| 20260506131029 | -1 | 31 | 0.0 | 0.0 | 0.00 | 0.00 | 0.00 | 94 | 1020.6 |
| 20260506130526 | -1 | 26 | 0.0 | 0.0 | 0.00 | 0.00 | 0.00 | 94 | 1020.4 |
| 20260506130023 | -1 | 28 | 0.0 | 0.0 | 0.00 | 0.00 | 0.00 | 94 | 1020.5 |
| 20260506125521 | -1 | 26 | 0.0 | 0.0 | 0.00 | 0.00 | 0.00 | 94 | 1020.6 |
| 20260506125019 | -1 | 27 | 0.0 | 0.0 | 0.00 | 0.00 | 0.00 | 94 | 1020.9 |
| 20260506124517 | -1 | 28 | 0.0 | 0.0 | 0.00 | 0.00 | 0.00 | 94 | 1020.4 |
| 20260506124014 | -1 | 27 | 0.0 | 0.0 | 0.00 | 0.00 | 0.00 | 94 | 1020.4 |
| 20260506123512 | -1 | 1 | 0.0 | 0.0 | 0.00 | 0.00 | 0.00 | 94 | 1020.6 |
| 20260506123010 | -1 | 30 | 0.0 | 0.0 | 0.00 | 0.00 | 0.00 | 95 | 1020.5 |
| 20260506122506 | -1 | 15 | 0.0 | 0.0 | 0.00 | 0.00 | 0.00 | 94 | 1020.3 |
| 20260506122005 | -1 | 15 | 0.0 | 0.0 | 0.00 | 0.00 | 0.00 | 94 | 1020.4 |
| 20260506121501 | -1 | 7 | 0.0 | 0.0 | 0.00 | 0.00 | 0.00 | 94 | 1019.8 |
| 20260506120958 | -1 | 15 | 0.0 | 0.0 | 0.00 | 0.00 | 0.00 | 94 | 1019.8 |
| 20260506120456 | -1 | 25 | 0.0 | 0.0 | 0.00 | 0.00 | 0.00 | 94 | 1019.8 |
| 20260506115953 | -1 | 21 | 0.0 | 0.0 | 0.00 | 0.00 | 0.00 | 95 | 1020.0 |
| 20260506115451 | -1 | 28 | 0.0 | 0.0 | 0.00 | 0.00 | 0.00 | 95 | 1019.8 |
| 20260506114949 | -1 | 25 | 0.0 | 0.0 | 0.00 | 0.00 | 0.00 | 95 | 1019.8 |
| 20260506114446 | -1 | 8 | 0.0 | 0.0 | 0.00 | 0.00 | 0.00 | 95 | 1020.0 |
| 20260506113944 | -1 | 17 | 0.0 | 0.0 | 0.00 | 0.00 | 0.00 | 94 | 1020.0 |
| 20260506113442 | -1 | 16 | 0.0 | 0.0 | 0.00 | 0.00 | 0.00 | 94 | 1019.9 |
| 20260506112938 | -1 | 16 | 0.0 | 0.0 | 0.00 | 0.00 | 0.00 | 94 | 1019.6 |
| 20260506112436 | -1 | 24 | 0.0 | 0.0 | 0.00 | 0.00 | 0.00 | 94 | 1019.8 |
| 20260506111933 | -1 | 25 | 0.0 | 0.0 | 0.00 | 0.00 | 0.00 | 94 | 1019.8 |
| 20260506111431 | -1 | 34 | 0.0 | 0.0 | 0.00 | 0.00 | 0.00 | 94 | 1019.8 |
| 20260506110928 | -1 | 29 | 0.0 | 0.0 | 0.00 | 0.00 | 0.00 | 94 | 1019.8 |
| 20260506110426 | -1 | 28 | 0.0 | 0.0 | 0.00 | 0.00 | 0.00 | 95 | 1019.8 |
| 20260506105922 | -1 | 26 | 0.0 | 0.0 | 0.00 | 0.00 | 0.00 | 95 | 1019.8 |
| 20260506105418 | -1 | 33 | 0.0 | 0.0 | 0.00 | 0.00 | 0.00 | 95 | 1019.8 |
| 20260506104916 | -1 | 33 | 0.0 | 0.0 | 0.00 | 0.00 | 0.00 | 95 | 1019.4 |
| 20260506104414 | 0 | 31 | 0.0 | 0.0 | 0.00 | 0.00 | 0.00 | 95 | 1019.6 |
| 20260506103911 | 0 | 31 | 0.0 | 0.0 | 0.00 | 0.00 | 0.00 | 95 | 1019.4 |
| 20260506103409 | 0 | 30 | 0.0 | 0.0 | 0.00 | 0.00 | 0.00 | 95 | 1019.4 |
| 20260506102905 | 0 | 33 | 0.0 | 0.0 | 0.00 | 0.00 | 0.00 | 95 | 1019.4 |
| 20260506102404 | 0 | 34 | 0.0 | 0.0 | 0.00 | 0.00 | 0.00 | 95 | 1019.3 |
| 20260506101901 | 0 | 33 | 0.0 | 0.0 | 0.00 | 0.00 | 0.00 | 95 | 1019.4 |
| 20260506101356 | 0 | 50 | 0.0 | 0.0 | 0.00 | 0.00 | 0.00 | 95 | 1019.2 |
| 20260506100854 | 0 | 34 | 0.0 | 0.0 | 0.00 | 0.00 | 0.00 | 95 | 1019.5 |
| 20260506100352 | 0 | 35 | 0.0 | 0.0 | 0.00 | 0.00 | 0.00 | 94 | 1019.2 |
| 20260506095850 | 0 | 48 | 0.0 | 0.0 | 0.00 | 0.00 | 0.00 | 94 | 1019.4 |
| 20260506095348 | 0 | 48 | 0.0 | 0.0 | 0.00 | 0.00 | 0.00 | 94 | 1019.2 |
| 20260506094844 | 0 | 33 | 0.0 | 0.0 | 0.00 | 0.00 | 0.00 | 95 | 1018.9 |
| 20260506094343 | 0 | 32 | 0.0 | 0.0 | 0.00 | 0.00 | 0.00 | 95 | 1019.0 |
| 20260506093841 | 0 | 31 | 0.0 | 0.0 | 0.00 | 0.00 | 0.00 | 95 | 1019.0 |
| 20260506093338 | 0 | 28 | 0.0 | 0.0 | 0.00 | 0.00 | 0.00 | 95 | 1019.4 |
| 20260506092835 | 0 | 34 | 0.0 | 0.0 | 0.00 | 0.00 | 0.00 | 95 | 1019.0 |
| 20260506092333 | 0 | 37 | 0.0 | 0.0 | 0.00 | 0.00 | 0.00 | 95 | 1019.0 |
| 20260506091830 | 0 | 22 | 0.0 | 0.0 | 0.00 | 0.00 | 0.00 | 95 | 1019.2 |
| 20260506091328 | 0 | 34 | 0.0 | 0.0 | 0.00 | 0.00 | 0.00 | 94 | 1019.0 |
| 20260506090825 | 0 | 34 | 0.0 | 0.0 | 0.00 | 0.00 | 0.00 | 94 | 1018.9 |
| 20260506090322 | 0 | 34 | 0.0 | 0.0 | 0.00 | 0.00 | 0.00 | 94 | 1019.2 |
| 20260506085819 | 0 | 42 | 0.0 | 0.0 | 0.00 | 0.00 | 0.00 | 94 | 1018.9 |
| 20260506085315 | 0 | 41 | 0.0 | 0.0 | 0.00 | 0.00 | 0.00 | 94 | 1018.9 |
| 20260506084812 | 0 | 70 | 0.0 | 0.0 | 0.00 | 0.00 | 0.00 | 94 | 1019.0 |
| 20260506084308 | 0 | 32 | 0.0 | 0.0 | 0.00 | 0.00 | 0.00 | 94 | 1019.0 |
| 20260506083805 | 0 | 39 | 0.0 | 0.0 | 0.00 | 0.00 | 0.00 | 94 | 1019.3 |
| 20260506083303 | 0 | 33 | 0.0 | 0.0 | 0.00 | 0.00 | 0.00 | 94 | 1019.3 |
| 20260506082800 | 0 | 32 | 0.0 | 0.0 | 0.00 | 0.00 | 0.00 | 94 | 1019.0 |
| 20260506082255 | 0 | 33 | 0.0 | 0.0 | 0.00 | 0.00 | 0.00 | 94 | 1019.2 |
| 20260506081753 | 0 | 33 | 0.0 | 0.0 | 0.00 | 0.00 | 0.00 | 94 | 1019.2 |
| 20260506081251 | 0 | 33 | 0.0 | 0.0 | 0.00 | 0.00 | 0.00 | 94 | 1019.4 |
| 20260506080748 | 0 | 33 | 0.0 | 0.0 | 0.00 | 0.00 | 0.00 | 94 | 1019.0 |
| 20260506080244 | 0 | 34 | 0.0 | 0.0 | 0.00 | 0.00 | 0.00 | 95 | 1019.3 |